www.pogodaiklimat.ru

Погода и климат >> Архив погоды >> Латвия >> Рига


АРХИВ ПОГОДЫ в Риге

Время (UTC), дата Ветер
(напр.,м/с)
 
Видим.   Явления Облачность Т
(С)
Тd
(С)
f
(%)
Тe
(С)
Тes
(С)
Комфортность P
(гПа)
Po
(гПа)
Тmin
(С)
Tmax
(С)
R
(мм)
R24
(мм)
S
(см)
03 13.06 ЮВ 4-8
{9}
20 км н/о +20.0 +17.1 83 +23 +23 комфорт 1015.2 1014.4
06 13.06 Ю 5-8
{9}
20 км н/о +24.2 +18.3 70 +29 +29 душно 1015.5 1014.7
09 13.06 Ю 5-8
{9}
19 км н/о +28.7 +19.3 57 +34 +34 очень
душно
1015.5 1014.7
12 13.06 Ю 5-12
{12}
18 км н/о +31.9 +17.7 43 +36 +36 очень
душно
1013.9 1013.1
15 13.06 С 4-7
{9}
20 км н/о +25.3 +16.9 60 +29 +29 душно 1013.8 1013.0
18 13.06 СЗ 5-9
{15}
20 км н/о +20.0 +15.6 76 +22 +22 комфорт 1016.4 1015.5
21 13.06 ЮЗ 2-4
{6}
20 км н/о +20.1 +17.2 83 +24 +24 комфорт 1016.5 1015.6
03 14.06 З 1-2
{3}
20 км н/о +19.1 +16.8 87 +22 +22 комфорт 1017.1 1016.2
06 14.06 С 3-5
{5}
9000 м н/о +20.7 +16.4 76 +24 +24 комфорт 1017.0 1016.2
09 14.06 С 5-7
{7}
11 км н/о +18.6 +16.3 86 +19 +19 тепло 1019.2 1018.3
12 14.06 С 3-5
{6}
20 км н/о +20.2 +15.5 74 +23 +23 комфорт 1020.5 1019.6
15 14.06 С 4-6
{6}
19 км н/о +20.6 +14.9 70 +24 +24 комфорт 1020.6 1019.7
18 14.06 С 3-5
{6}
19 км н/о +18.2 +11.4 64 +19 +19 тепло 1020.1 1019.2
21 14.06 С 3-5
{5}
17 км н/о +15.7 +13.6 87 +15 +15 тепло 1021.4 1020.5
00 15.06 С 3-6
{6}
20 км н/о +14.7 +12.8 88 +14 +14 тепло 1021.6 1020.7
03 15.06 С 3-5
{6}
20 км н/о +14.7 +12.3 86 +14 +14 тепло 1021.2 1020.3
06 15.06 СЗ 1-2
{3}
20 км н/о +17.6 +12.6 72 +19 +19 тепло 1021.3 1020.4
09 15.06 СЗ 2-5
{5}
20 км н/о +22.5 +10.9 48 +25 +25 комфорт 1020.7 1019.9
12 15.06 С 3-5
{5}
20 км н/о +22.6 +10.0 45 +24 +24 комфорт 1019.9 1019.1
15 15.06 С 3-5
{7}
20 км н/о +23.6 +10.2 43 +25 +25 комфорт 1019.2 1018.4
18 15.06 С 2-4
{5}
20 км н/о +21.9 +8.7 43 +23 +23 комфорт 1018.0 1017.2
21 15.06 В 2-3
{3}
20 км н/о +17.9 +11.8 67 +18 +18 тепло 1017.8 1016.9
00 16.06 В 3-5
{5}
20 км н/о +17.9 +11.4 66 +18 +18 тепло 1016.8 1015.9
03 16.06 ЮВ 2-4
{4}
20 км н/о +17.6 +10.4 63 +18 +18 тепло 1017.1 1016.2
06 16.06 ЮВ 3-6
{6}
20 км н/о +19.8 +11.7 60 +22 +22 комфорт 1016.3 1015.4
09 16.06 В 3-5
{6}
20 км н/о +21.7 +13.0 58 +24 +24 комфорт 1015.7 1014.9
12 16.06 Ю 2-5
{5}
20 км н/о +22.7 +13.9 58 +26 +26 жарко 1015.8 1015.0
15 16.06 В 2-4
{5}
20 км н/о +22.3 +14.6 62 +26 +26 жарко 1014.9 1014.1
18 16.06 Ю 2-3
{4}
20 км н/о +21.4 +13.0 59 +24 +24 комфорт 1014.5 1013.7
21 16.06 Ю 2-4
{4}
20 км н/о +19.0 +16.0 83 +21 +21 комфорт 1014.7 1013.8
00 17.06 В 2-3
{5}
9000 м н/о +18.0 +16.8 93 +19 +19 тепло 1014.8 1013.9
03 17.06 В 3-5
{5}
20 км н/о +17.5 +15.8 90 +17 +17 тепло 1014.6 1013.7
06 17.06 В 2-4
{5}
9000 м н/о +17.3 +16.2 93 +18 +18 тепло 1015.2 1014.3
09 17.06 С 3-6
{6}
11 км н/о +17.6 +16.7 94 +18 +18 тепло 1016.4 1015.5
12 17.06 С 4-7
{7}
18 км н/о +19.4 +16.4 83 +21 +21 комфорт 1017.3 1016.4
15 17.06 С 5-8
{8}
20 км н/о +21.1 +9.6 48 +22 +22 комфорт 1017.8 1016.9
06 18.06 СЗ 4-7
{7}
20 км ясно +19.4 +12.1 63 +21 +25 комфорт 1020.4 1019.5
09 18.06 20 км н/о
12 18.06 -5
{6}
20 км ясно +23.4 +12.0 49 1020.5 1019.7
15 18.06 20 км н/о
21 18.06 СВ 2-4
{4}
20 км н/о +17.6 +10.2 62 +18 +18 тепло 1019.3 1018.4
00 19.06 ЮВ 1-1
{2}
19 км н/о +15.8 +10.7 72 +17 +17 тепло 1019.5 1018.6
03 19.06 ЮВ 2-3
{4}
20 км н/о +16.8 +12.1 74 +17 +17 тепло 1018.6 1017.7
06 19.06 Ю 2-4
{5}
19 км н/о +21.6 +13.7 61 +24 +24 комфорт 1018.0 1017.2
09 19.06 ЮЗ 5-8
{8}
20 км н/о +25.4 +10.7 40 +26 +26 жарко 1017.6 1016.8
12 19.06 Ю 4-7
{8}
18 км н/о +26.3 +11.5 40 +28 +28 жарко 1016.5 1015.7
15 19.06 Ю 2-4
{7}
19 км н/о +26.6 +12.2 41 +28 +28 жарко 1015.1 1014.3
18 19.06 СВ 3-5
{5}
20 км н/о +24.8 +12.7 47 +27 +27 жарко 1014.1 1013.3

 

Местоположение метеостанции Рига (Латвия): широта 56.97 долгота 24.05 высота над уровнем моря 26 м.

В архиве по умолчанию представлена погода в Риге за последнюю неделю. Архивные данные за месяц целиком и за предыдущие месяцы, начиная с января 2011 года, Вы можете получить, выбрав интересующий диапазон дат из раскрывающегося списка и нажав кнопку "Ввод!".


*Определитесь, кто Вы:
робот инопланетянин человек

Внимание! Время в таблицах - всемирное. Для получения местного времени необходимо прибавить поправку, которая равна 2 ч.

Смотрите также архив погоды в соседних городах и на ближайших метеорологических станциях:

Погода в Елгаве (Латвия) (41 км)
Погода в Скульте (Латвия) (45 км)
Погода в Добеле (Латвия) (59 км)
Погода в Бауске (Латвия) (64 км)
Погода в Мерсрагсе (Латвия) (70 км)
Погода в Скриверу (Латвия) (75 км)
Погода в Приекули (Латвия) (86 км)
Погода в Стенде (Латвия) (94 км)
Погода в Биржае (Литва) (96 км)
Погода в Салдусе (Латвия) (100 км)

Пояснения к столбцам:

Ветер - указаны скорость ветра в м/с - средняя за 10 мин, порывы в срок и между сроками (в фигурных скобках) и направление, откуда дует ветер: С - северный, СВ - северо-восточный, В - восточный, ЮВ - юго-восточный, Ю - южный, ЮЗ - юго-западный, З - западный, СЗ - северо-западный.
Видимость - горизонтальная дальность видимости в метрах или километрах. При видимости от 1 до 10 км при отсутствии осадков обычно наблюдается дымка, при ухудшении видимости до 1 км и менее - туман. В сухую погоду видимость может ухудшаться дымом, пылью или мглою.
Явления - указаны атмосферные явления, наблюдавшиеся в срок или в последний час перед сроком; фигурными скобками обозначены явления, наблюдавшиеся между сроками (за 1-3 часа до срока); квадратными скобками обозначены град или гололедные отложения с указанием их диаметра в мм.
Облачность - указаны через наклонную черту общая и нижняя облачность в баллах и высота нижней границы облаков в метрах; квадратными скобками обозначены формы облаков: Ci - перистые, Cs - перисто-слоистые, Cc - перисто-кучевые, Ac - высококучевые, As - высокослоистые, Sc - слоисто-кучевые, Ns - слоисто-дождевые, Cu - кучевые, Cb - кучево-дождевые. Подробнее классификацию облаков см. в Атласе облаков (PDF).
T - Температура воздуха - температура, измеренная на высоте 2 м над землей.
Td - Температура точки росы - температура, при понижении до которой содержащийся в воздухе водяной пар достигнет насыщения.
f - Относительная влажность воздуха - влажноcть воздуха, измеренная на высоте 2 м над землей.
Te - Эффективная температура - температура, которую ощущает одетый по сезону человек в тени. Характеристика душности погоды. При расчете учитывается влияние влажности воздуха и скорости ветра на теплоощущения человека.
Tes - Эффективная температура на солнце - температура, которую ощущает человек, с поправкой на солнечный нагрев. Характеристика знойности погоды. Зависит от высоты солнца над горизонтом, облачности и скорости ветра. Ночью, в пасмурную погоду, а также при ветре 12 м/с и более поправка равна нулю.
P - Атмосферное давление - приведенное к уровню моря атмосферное давление.
Po - Атмосферное давление - измеренное на уровне метеостанции атмосферное давление.
Tmin - Минимальная температура - минимум температуры воздуха на высоте 2 м над землей.
Tmax - Максимальная температура - максимум температуры воздуха на высоте 2 м над землей.
R - Количество осадков - Количество выпавших осадков за период времени, мм. При наведении курсора мыши на число - период времени, за который выпало указанное количество осадков.
R24 - Количество осадков - Количество выпавших осадков за 24 часа, мм.
S - Снежный покров - Высота снежного покрова, см. При наведении курсора мыши на число - состояние снежного покрова и степень покрытия местности в баллах.